This is the latest recevied weather packets stored in our database for station/object IZ1UQG-1. If no packets are shown the sender has not sent any weather packets the latest 10 day(s).
| Time | Temp. | Humidity | Pressure | Rain* | Wind** | Luminosity | Snow |
|---|---|---|---|---|---|---|---|
| 1777071858 | 17.78° C | 49% | 1015.3 hPa | 106.43 mm | - | - | - |
| 1777071557 | 17.78° C | 49% | 1015.2 hPa | 91.95 mm | - | - | - |
| 1777071258 | 17.78° C | 49% | 1015.2 hPa | 148.34 mm | - | - | - |
| 1777070958 | 17.78° C | 49% | 1015.2 hPa | 125.98 mm | - | - | - |
| 1777070658 | 17.78° C | 49% | 1015 hPa | 114.05 mm | - | - | - |
| 1777070358 | 17.78° C | 49% | 1015.2 hPa | 114.05 mm | - | - | - |
| 1777070058 | 18.33° C | 49% | 1015.1 hPa | 136.4 mm | - | - | - |
| 1777069758 | 18.33° C | 48% | 1015.1 hPa | 144.27 mm | - | - | - |
| 1777069458 | 18.33° C | 48% | 1015 hPa | 104.39 mm | - | - | - |
| 1777069158 | 18.33° C | 48% | 1015.1 hPa | 92.46 mm | - | - | - |
| 1777068858 | 18.33° C | 48% | 1014.9 hPa | 122.94 mm | - | - | - |
| 1777068558 | 18.33° C | 48% | 1014.9 hPa | 115.82 mm | - | - | - |
| 1777068258 | 18.33° C | 47% | 1014.9 hPa | 101.85 mm | - | - | - |
| 1777067958 | 18.89° C | 47% | 1014.9 hPa | 39.12 mm | - | - | - |
| 1777067658 | 18.89° C | 47% | 1014.9 hPa | 104.9 mm | - | - | - |
| 1777067358 | 18.89° C | 47% | 1015 hPa | 92.46 mm | - | - | - |
| 1777067058 | 18.89° C | 47% | 1014.9 hPa | 62.99 mm | - | - | - |
| 1777066758 | 18.89° C | 47% | 1014.7 hPa | 61.98 mm | - | - | - |
| 1777066458 | 18.89° C | 46% | 1014.9 hPa | 104.9 mm | - | - | - |
| 1777066158 | 18.89° C | 46% | 1014.8 hPa | 102.36 mm | - | - | - |
| 1777065858 | 18.89° C | 46% | 1014.7 hPa | 100.08 mm | - | - | - |
| 1777065558 | 19.44° C | 45% | 1014.8 hPa | 55.63 mm | - | - | - |
| 1777065258 | 19.44° C | 45% | 1014.6 hPa | 93.47 mm | - | - | - |
| 1777064958 | 19.44° C | 45% | 1014.7 hPa | 85.09 mm | - | - | - |
| 1777064658 | 19.44° C | 45% | 1014.7 hPa | 72.14 mm | - | - | - |
* Rain latest hour (hover to see other rain measurements)
** Current wind speed in m/s (hover to see current wind gust speed)